Regional Weather Roundup
Issued by NWS Memphis, TN

Home | Current Version | Previous Version | Text Only | Print | Product List | Glossary On
Versions: 1 2 3 4 5 6 7 8 9 10 11 12 13 14 15 16 17 18 19 20 21 22 23 24 25 26 27 28 29 30 31 32 33 34 35 36 37 38 39 40 41 42 43 44 45 46 47 48 49 50
000
ASUS44 KMEG 302010
RWRMEG
MEMPHIS CWA HOURLY WEATHER ROUNDUP
NATIONAL WEATHER SERVICE MEMPHIS TN
300 PM CDT SAT APR 30 2016

...WEST TENNESSEE...

CITY           SKY/WX    TMP DP  RH WIND       PRES   REMARKS
MEMPHIS INTL   CLOUDY    73  61  65 S8        29.78F
NWS MEMPHIS      N/A     71 N/A N/A MISG        N/A
JACKSON        CLOUDY    68  62  81 CALM      29.83F
LEXINGTON      MOSUNNY   66  64  94 SE7       29.85F
DYERSBURG      CLOUDY    72  59  64 SE3         N/A
UNION CITY     MOSUNNY   72  64  78 SE6       29.80F


...EASTERN ARKANSAS...

CITY           SKY/WX    TMP DP  RH WIND       PRES   REMARKS
JONESBORO      CLOUDY    74  61  63 S9        29.76F
WEST MEMPHIS   CLOUDY    70  63  78 SE22      29.71F
BATESVILLE     SUNNY     77  63  61 S12       29.74S
NEWPORT        MOSUNNY   76  62  61 S7        29.75F
WALNUT RIDGE   CLOUDY    73  61  64 S9        29.75F
BLYTHEVILLE    CLOUDY    73  62  68 S5        29.78F
SEARCY         SUNNY     77  63  61 S17       29.76R
STUTTGART      SUNNY     77  61  57 SW10      29.76S
PINE BLUFF     SUNNY     78  62  57 SW10      29.75R
MONTICELLO     SUNNY     81  62  52 S14G22    29.74R


...NORTH MISSISSIPPI...

CITY           SKY/WX    TMP DP  RH WIND       PRES   REMARKS
TUPELO         CLOUDY    70  63  78 E5        29.88S
OXFORD         RAIN      64  63  94 S9G20     29.86F
BATESVILLE     LGT RAIN  69  64  84 S8        29.81F
OLIVE BRANCH   PTSUNNY   70  66  88 SE8       29.80F
TUNICA         CLOUDY    68  63  83 SE10G17   29.76F
CORINTH        CLOUDY    68  64  88 SE10      29.86F
GREENWOOD      CLOUDY    66  63  90 E8        29.81F
COLUMBUS       CLOUDY    76  70  82 S5        29.87F
STARKVILLE     FAIR      75  70  83 SE3       29.86F
GOLDEN TRIANGL PTSUNNY   75  70  83 S9        29.87F


...SOUTHEAST MISSOURI...

CITY           SKY/WX    TMP DP  RH WIND       PRES   REMARKS
KENNETT        FAIR      73  63  68 SW7G14    29.76F
WEST PLAINS    PTSUNNY   71  58  63 SW9       29.76F
POPLAR BLUFF   CLOUDY    70  61  73 S8        29.76F
CAPE GIRARDEAU CLOUDY    71  61  70 S12       29.79S


...NORTHWEST ALABAMA...

CITY           SKY/WX    TMP DP  RH WIND       PRES   REMARKS


...MIDDLE TENNESSEE...

CITY           SKY/WX    TMP DP  RH WIND       PRES   REMARKS
NASHVILLE      CLOUDY    75  63  66 S5        29.88F
CLARKSVILLE    LGT RAIN  69  64  84 S6        29.86R
COLUMBIA       MOSUNNY   75  75 100 S9        29.88S


...WESTERN KENTUCKY...

CITY           SKY/WX    TMP DP  RH WIND       PRES   REMARKS
PADUCAH        MOSUNNY   73  61  65 S12G20    29.81F
FORT CAMPBELL  DRIZZLE   72  66  83 SW5         N/A


...CENTRAL ARKANSAS...

CITY           SKY/WX    TMP DP  RH WIND       PRES   REMARKS
LITTLE ROCK    MOSUNNY   78  63  59 SW8       29.74S


SKY/WX REPORTED AS FAIR MEANS FEW OR NO CLOUDS BELOW
12 THOUSAND FEET.




USA.gov is the U.S. government's official web portal to all federal, state and local government web resources and services.